FW0225 Weather Reports


Display with metric or nautical units.
time (UTC)temp
F
wind
direction
speed
MPH
gust
MPH
rain 1hr
in
rain 24hr
in
rain mn
in
humidity
%
barometer
mb
20260906082020 83 61 6.0 13.0 0.00 0.00 0.00 49 1022.4
20260906081525 83 49 4.0 11.0 0.00 0.00 0.00 50 1022.5
20260906081046 82 57 5.0 11.0 0.00 0.00 0.00 49 1022.4
20260906080530 82 45 3.0 14.0 0.00 0.00 0.00 50 1022.3
20260906080024 82 67 5.0 14.0 0.00 0.00 0.00 49 1022.4
20260906075530 82 56 5.0 13.0 0.00 0.00 0.00 49 1022.5
20260906075013 81 78 4.0 14.0 0.00 0.00 0.00 51 1022.4
20260906074520 81 44 6.0 18.0 0.00 0.00 0.00 50 1022.2
20260906074023 81 64 10.0 18.0 0.00 0.00 0.00 51 1022.2
20260906073530 81 57 6.0 17.0 0.00 0.00 0.00 51 1022.1
20260906073045 81 5 5.0 14.0 0.00 0.00 0.00 51 1022.0
20260906072548 81 55 6.0 13.0 0.00 0.00 0.00 51 1022.1
20260906072049 80 74 5.0 12.0 0.00 0.00 0.00 51 1022.0
20260906071513 80 42 6.0 15.0 0.00 0.00 0.00 51 1022.2
20260906071020 80 35 6.0 15.0 0.00 0.00 0.00 52 1022.1
20260906070525 80 52 5.0 14.0 0.00 0.00 0.00 52 1022.2
20260906070019 79 35 4.0 13.0 0.00 0.00 0.00 53 1022.0
20260906065525 79 44 5.0 13.0 0.00 0.00 0.00 53 1022.0
20260906065046 79 90 3.0 13.0 0.00 0.00 0.00 54 1022.1
20260906064550 78 46 5.0 13.0 0.00 0.00 0.00 54 1022.1
20260906064015 77 75 7.0 13.0 0.00 0.00 0.00 54 1022.0
20260906063522 77 50 4.0 16.0 0.00 0.00 0.00 55 1022.1
20260906063018 77 53 8.0 16.0 0.00 0.00 0.00 55 1022.0
20260906062523 77 49 4.0 11.0 0.00 0.00 0.00 56 1021.9
20260906062024 77 55 1.0 15.0 0.00 0.00 0.00 56 1022.0
20260906061529 77 61 4.0 17.0 0.00 0.00 0.00 55 1022.0
20260906061030 77 75 3.0 17.0 0.00 0.00 0.00 56 1021.9
20260906060519 76 42 3.0 12.0 0.00 0.00 0.00 58 1021.9
20260906060017 76 41 2.0 8.0 0.00 0.00 0.00 58 1021.9
20260906055522 76 44 3.0 11.0 0.00 0.00 0.00 58 1021.7
20260906055025 76 46 4.0 12.0 0.00 0.00 0.00 58 1021.7
20260906054532 76 59 2.0 12.0 0.00 0.00 0.00 58 1021.6
20260906054014 76 36 4.0 12.0 0.00 0.00 0.00 58 1021.8
20260906053520 76 348 3.0 6.0 0.00 0.00 0.00 60 1021.6
20260906053014 76 344 1.0 9.0 0.00 0.00 0.00 60 1021.5
20260906052520 76 341 2.0 9.0 0.00 0.00 0.00 58 1021.5
20260906052024 76 355 2.0 10.0 0.00 0.00 0.00 60 1021.5
20260906051531 76 355 2.0 10.0 0.00 0.00 0.00 59 1021.4
20260906051013 76 346 3.0 6.0 0.00 0.00 0.00 58 1021.4
20260906050523 76 347 3.0 6.0 0.00 0.00 0.00 58 1021.4
20260906050019 76 355 2.0 8.0 0.00 0.00 0.00 58 1021.4
20260906045546 76 5 3.0 8.0 0.00 0.00 0.00 58 1021.3
20260906045026 76 10 3.0 10.0 0.00 0.00 0.00 58 1021.2
20260906044530 76 360 3.0 10.0 0.00 0.00 0.00 58 1021.2
20260906044015 76 28 2.0 8.0 0.00 0.00 0.00 58 1021.3
20260906043519 76 28 3.0 9.0 0.00 0.00 0.00 58 1021.1
20260906043013 76 40 2.0 9.0 0.00 0.00 0.00 57 1021.1
20260906042519 76 30 2.0 8.0 0.00 0.00 0.00 58 1021.1
20260906042020 76 30 3.0 12.0 0.00 0.00 0.00 58 1021.0
20260906041526 76 30 4.0 12.0 0.00 0.00 0.00 58 1021.0
20260906041028 76 12 1.0 10.0 0.00 0.00 0.00 59 1020.9
20260906040514 76 17 2.0 10.0 0.00 0.00 0.00 58 1020.9
20260906040048 76 5 2.0 9.0 0.00 0.00 0.00 58 1020.8
20260906035512 77 355 2.0 6.0 0.00 0.00 0.00 58 1020.8
20260906035013 77 355 2.0 4.0 0.00 0.00 0.00 58 1020.7
20260906034518 77 355 2.0 5.0 0.00 0.00 0.00 57 1020.6
20260906034026 77 355 3.0 5.0 0.00 0.00 0.00 57 1020.6
20260906033532 77 360 2.0 5.0 0.00 0.00 0.00 57 1020.6
20260906033026 77 5 2.0 4.0 0.00 0.00 0.00 57 1020.6
20260906032514 77 360 1.0 6.0 0.00 0.00 0.00 57 1020.6
20260906032018 77 15 2.0 6.0 0.00 0.00 0.00 56 1020.4
20260906031523 77 355 2.0 4.0 0.00 0.00 0.00 58 1020.4
20260906031026 78 355 1.0 3.0 0.00 0.00 0.00 57 1020.4
20260906030514 78 360 1.0 6.0 0.00 0.00 0.00 56 1020.3
20260906030028 78 360 2.0 8.0 0.00 0.00 0.00 55 1020.4
20260906025536 78 10 2.0 8.0 0.00 0.00 0.00 55 1020.3
20260906025015 78 5 2.0 6.0 0.00 0.00 0.00 55 1020.3
20260906024521 78 38 2.0 7.0 0.00 0.00 0.00 55 1020.3
20260906024024 78 44 1.0 7.0 0.00 0.00 0.00 56 1020.2
20260906023514 78 38 1.0 12.0 0.00 0.00 0.00 55 1020.2
20260906023029 78 325 2.0 8.0 0.00 0.00 0.00 55 1020.1
20260906022514 78 313 1.0 5.0 0.00 0.00 0.00 55 1020.2
20260906022019 78 313 1.0 8.0 0.00 0.00 0.00 54 1020.1
20260906021544 78 317 1.0 5.0 0.00 0.00 0.00 55 1020.1
20260906021025 78 318 2.0 5.0 0.00 0.00 0.00 55 1020.1
20260906020530 78 317 2.0 6.0 0.00 0.00 0.00 55 1020.0
20260906020026 78 313 2.0 9.0 0.00 0.00 0.00 55 1020.1
20260906015513 78 304 3.0 9.0 0.00 0.00 0.00 54 1019.9
20260906015016 78 346 2.0 9.0 0.00 0.00 0.00 55 1019.9
20260906014522 78 310 1.0 5.0 0.00 0.00 0.00 55 1020.0
20260906014026 79 313 1.0 10.0 0.00 0.00 0.00 55 1019.9
20260906013517 78 311 3.0 10.0 0.00 0.00 0.00 55 1019.9
20260906013031 78 15 3.0 10.0 0.00 0.00 0.00 55 1020.0
20260906012518 79 350 2.0 5.0 0.00 0.00 0.00 55 1019.9
20260906012020 78 348 1.0 8.0 0.00 0.00 0.00 56 1020.0
20260906011527 78 348 2.0 8.0 0.00 0.00 0.00 55 1020.0
20260906011029 78 5 2.0 9.0 0.00 0.00 0.00 56 1020.0
20260906010534 78 11 1.0 9.0 0.00 0.00 0.00 56 1019.9
20260906010025 78 355 2.0 6.0 0.00 0.00 0.00 56 1019.9
20260906005532 78 355 2.0 6.0 0.00 0.00 0.00 56 1019.8
20260906005015 78 5 1.0 8.0 0.00 0.00 0.00 56 1019.8
20260906004542 78 360 2.0 8.0 0.00 0.00 0.00 56 1019.8
20260906004024 78 360 1.0 5.0 0.00 0.00 0.00 57 1019.8
20260906003554 78 360 2.0 8.0 0.00 0.00 0.00 56 1019.8
20260906003027 78 13 2.0 10.0 0.00 0.00 0.00 56 1019.8
20260906002532 78 22 2.0 10.0 0.00 0.00 0.00 56 1019.7
20260906002017 78 12 1.0 9.0 0.00 0.00 0.00 57 1019.7
20260906001524 78 15 3.0 9.0 0.00 0.00 0.00 57 1019.7
20260906001024 78 5 2.0 6.0 0.00 0.00 0.00 56 1019.7
20260906000550 78 19 2.0 4.0 0.00 0.00 0.00 57 1019.7
20260906000022 78 19 1.0 4.0 0.00 0.00 0.00 56 1019.7
20260905235548 79 22 2.0 4.0 0.00 0.00 0.00 57 1019.7
20260905235029 79 18 2.0 9.0 0.00 0.00 0.00 56 1019.6
20260905234514 79 19 2.0 9.0 0.00 0.00 0.00 56 1019.5
20260905234018 79 24 2.0 5.0 0.00 0.00 0.00 57 1019.5
20260905233543 79 30 1.0 12.0 0.00 0.00 0.00 57 1019.4
20260905233016 79 36 2.0 12.0 0.00 0.00 0.00 57 1019.5
20260905232522 79 292 2.0 5.0 0.00 0.00 0.00 57 1019.4
20260905232024 79 292 2.0 5.0 0.00 0.00 0.00 57 1019.4
20260905231529 79 288 2.0 4.0 0.00 0.00 0.00 58 1019.4
20260905231014 79 287 1.0 4.0 0.00 0.00 0.00 58 1019.4
20260905230524 78 287 2.0 7.0 0.00 0.00 0.00 58 1019.4
20260905230018 78 287 1.0 4.0 0.00 0.00 0.00 58 1019.3
20260905225526 78 287 2.0 4.0 0.00 0.00 0.00 57 1019.3
20260905225030 78 287 2.0 4.0 0.00 0.00 0.00 58 1019.2
20260905224535 77 284 1.0 3.0 0.00 0.00 0.00 60 1019.1
20260905224015 77 284 1.0 4.0 0.00 0.00 0.00 60 1019.1
20260905223521 77 284 2.0 4.0 0.00 0.00 0.00 61 1019.1
20260905223015 77 284 1.0 3.0 0.00 0.00 0.00 61 1019.0
20260905222521 77 284 1.0 3.0 0.00 0.00 0.00 59 1019.0
20260905222023 78 284 1.0 4.0 0.00 0.00 0.00 61 1019.0
20260905221528 78 284 2.0 3.0 0.00 0.00 0.00 58 1019.1
20260905221029 78 284 1.0 5.0 0.00 0.00 0.00 60 1019.0
20260905220537 78 283 1.0 5.0 0.00 0.00 0.00 60 1019.0
20260905220052 78 282 2.0 5.0 0.00 0.00 0.00 60 1019.1
20260905215517 78 277 1.0 3.0 0.00 0.00 0.00 60 1019.0
20260905215039 78 277 1.0 3.0 0.00 0.00 0.00 60 1018.9
20260905214544 78 277 1.0 3.0 0.00 0.00 0.00 60 1019.0
20260905214024 78 277 1.0 3.0 0.00 0.00 0.00 58 1019.0
20260905213533 78 277 1.0 3.0 0.00 0.00 0.00 58 1019.1
20260905213028 78 277 1.0 3.0 0.00 0.00 0.00 59 1019.1
20260905212533 79 276 1.0 4.0 0.00 0.00 0.00 60 1019.0
20260905212053 79 276 2.0 4.0 0.00 0.00 0.00 57 1019.1
20260905211518 78 272 1.0 7.0 0.00 0.00 0.00 58 1019.0
20260905211021 78 271 1.0 3.0 0.00 0.00 0.00 61 1018.9
20260905210527 79 271 1.0 3.0 0.00 0.00 0.00 61 1018.9
20260905210021 79 271 1.0 3.0 0.00 0.00 0.00 59 1018.9
20260905205525 79 271 1.0 4.0 0.00 0.00 0.00 60 1018.8
20260905205029 79 271 2.0 4.0 0.00 0.00 0.00 60 1018.9
20260905204516 79 269 1.0 4.0 0.00 0.00 0.00 60 1018.9
20260905204017 79 268 2.0 7.0 0.00 0.00 0.00 58 1018.9
20260905203526 79 267 2.0 7.0 0.00 0.00 0.00 59 1018.9
20260905203020 79 259 1.0 3.0 0.00 0.00 0.00 58 1018.8
20260905202527 80 259 1.0 4.0 0.00 0.00 0.00 59 1018.8
20260905202029 79 258 1.0 9.0 0.00 0.00 0.00 59 1018.8
20260905201515 79 254 3.0 9.0 0.00 0.00 0.00 60 1018.7
20260905201018 79 241 1.0 3.0 0.00 0.00 0.00 59 1018.7
20260905200524 80 240 1.0 3.0 0.00 0.00 0.00 61 1018.7
20260905200018 80 240 2.0 4.0 0.00 0.00 0.00 59 1018.5
20260905195523 80 240 1.0 4.0 0.00 0.00 0.00 60 1018.5
20260905195026 80 240 2.0 7.0 0.00 0.00 0.00 59 1018.4
20260905194532 80 239 2.0 6.0 0.00 0.00 0.00 60 1018.3
20260905194054 80 234 2.0 5.0 0.00 0.00 0.00 60 1018.2
20260905193524 80 238 2.0 3.0 0.00 0.00 0.00 60 1018.3
20260905193018 80 236 1.0 4.0 0.00 0.00 0.00 61 1018.1
20260905192524 80 236 2.0 4.0 0.00 0.00 0.00 61 1018.0
20260905192026 80 236 1.0 4.0 0.00 0.00 0.00 60 1018.1
20260905191532 80 236 2.0 4.0 0.00 0.00 0.00 60 1018.1
20260905191015 80 234 1.0 2.0 0.00 0.00 0.00 60 1018.1
20260905190520 80 234 1.0 4.0 0.00 0.00 0.00 59 1018.0
20260905190016 81 234 2.0 4.0 0.00 0.00 0.00 60 1017.9
20260905185520 81 233 1.0 6.0 0.00 0.00 0.00 59 1017.9
20260905185024 81 232 1.0 6.0 0.00 0.00 0.00 59 1017.8
20260905184530 81 219 2.0 4.0 0.00 0.00 0.00 60 1017.7
20260905184011 81 217 1.0 4.0 0.00 0.00 0.00 59 1017.6
20260905183537 81 217 2.0 6.0 0.00 0.00 0.00 60 1017.4
20260905183014 81 216 1.0 6.0 0.00 0.00 0.00 60 1017.4
20260905182540 80 221 1.0 3.0 0.00 0.00 0.00 61 1017.3
20260905182021 80 219 1.0 3.0 0.00 0.00 0.00 61 1017.3
20260905181528 80 219 1.0 3.0 0.00 0.00 0.00 61 1017.2
20260905181029 80 219 0.0 3.0 0.00 0.00 0.00 63 1017.2
20260905180514 80 219 0.0 4.0 0.00 0.00 0.00 61 1017.2
20260905180027 80 220 1.0 2.0 0.00 0.00 0.00 62 1017.1
20260905175514 80 220 0.0 2.0 0.00 0.00 0.00 63 1017.0
20260905175038 80 220 1.0 2.0 0.00 0.00 0.00 64 1016.9
20260905174522 80 220 1.0 2.0 0.00 0.00 0.00 64 1016.8
20260905174023 81 220 0.0 2.0 0.00 0.00 0.00 64 1016.8
20260905173549 81 220 1.0 3.0 0.00 0.00 0.00 64 1016.7
20260905173022 82 220 1.0 3.0 0.00 0.00 0.00 63 1016.6
20260905172530 82 220 1.0 3.0 0.00 0.00 0.00 60 1016.5
20260905172011 82 220 1.0 3.0 0.00 0.00 0.00 61 1016.4
20260905171536 82 220 1.0 3.0 0.00 0.00 0.00 60 1016.3
20260905171018 81 219 1.0 3.0 0.00 0.00 0.00 62 1016.2
20260905170528 81 219 0.0 4.0 0.00 0.00 0.00 64 1016.2
20260905170023 80 219 1.0 4.0 0.00 0.00 0.00 65 1016.1
20260905165529 80 219 1.0 3.0 0.00 0.00 0.00 67 1016.1
20260905165011 80 219 0.0 1.0 0.00 0.00 0.00 71 1016.1
20260905164515 80 219 0.0 3.0 0.00 0.00 0.00 72 1016.0
20260905164017 81 219 1.0 3.0 0.00 0.00 0.00 72 1015.8
20260905163545 81 219 0.0 0.0 0.00 0.00 0.00 71 1015.6
20260905163041 81 219 0.0 1.0 0.00 0.00 0.00 71 1015.5
20260905162527 82 219 0.0 1.0 0.00 0.00 0.00 70 1015.4
20260905162030 82 219 0.0 0.0 0.00 0.00 0.00 70 1015.4
20260905161516 82 219 0.0 0.0 0.00 0.00 0.00 69 1015.4
20260905161020 83 219 0.0 0.0 0.00 0.00 0.00 69 1015.4
20260905160526 83 219 0.0 0.0 0.00 0.00 0.00 68 1015.4
20260905160021 83 219 0.0 0.0 0.00 0.00 0.00 68 1015.3
20260905155549 83 219 0.0 0.0 0.00 0.00 0.00 68 1015.3
20260905155011 84 219 0.0 1.0 0.00 0.00 0.00 66 1015.2
20260905154538 84 219 0.0 1.0 0.00 0.00 0.00 65 1015.1
20260905154025 84 219 0.0 1.0 0.00 0.00 0.00 64 1015.1
20260905153512 84 219 1.0 1.0 0.00 0.00 0.00 65 1015.1
20260905153028 85 219 0.0 2.0 0.00 0.00 0.00 65 1015.2
20260905152513 85 219 1.0 2.0 0.00 0.00 0.00 65 1015.2
20260905152015 85 219 1.0 3.0 0.00 0.00 0.00 64 1015.1
20260905151522 85 219 1.0 3.0 0.00 0.00 0.00 63 1015.2
20260905151024 86 219 2.0 3.0 0.00 0.00 0.00 61 1015.3
20260905150529 87 219 1.0 3.0 0.00 0.00 0.00 61 1015.3
20260905150023 88 219 1.0 3.0 0.00 0.00 0.00 58 1015.2
20260905145527 89 219 1.0 2.0 0.00 0.00 0.00 55 1015.2
20260905145030 89 219 1.0 3.0 0.00 0.00 0.00 52 1015.2
20260905144515 89 219 2.0 4.0 0.00 0.00 0.00 52 1015.1
20260905144019 90 219 1.0 4.0 0.00 0.00 0.00 52 1015.1
20260905143530 90 218 3.0 4.0 0.00 0.00 0.00 49 1015.1
20260905143025 91 213 2.0 4.0 0.00 0.00 0.00 47 1015.1
20260905142512 91 220 1.0 3.0 0.00 0.00 0.00 50 1015.1
20260905142014 92 220 1.0 3.0 0.00 0.00 0.00 52 1015.1
20260905141518 92 220 1.0 4.0 0.00 0.00 0.00 46 1015.1
20260905141020 92 215 2.0 4.0 0.00 0.00 0.00 47 1015.1
20260905140525 92 202 2.0 3.0 0.00 0.00 0.00 47 1015.2
20260905140020 92 202 1.0 4.0 0.00 0.00 0.00 44 1015.3
20260905135525 92 202 2.0 6.0 0.00 0.00 0.00 44 1015.3
20260905135030 92 200 3.0 6.0 0.00 0.00 0.00 46 1015.3
20260905134518 92 199 3.0 5.0 0.00 0.00 0.00 44 1015.3
20260905134021 92 209 1.0 4.0 0.00 0.00 0.00 43 1015.3
20260905133512 92 205 1.0 4.0 0.00 0.00 0.00 44 1015.3
20260905133027 92 197 1.0 6.0 0.00 0.00 0.00 43 1015.3
20260905132534 92 197 1.0 6.0 0.00 0.00 0.00 44 1015.4
20260905132016 92 204 3.0 5.0 0.00 0.00 0.00 42 1015.3
20260905131542 92 195 1.0 3.0 0.00 0.00 0.00 44 1015.2
20260905131021 91 196 1.0 5.0 0.00 0.00 0.00 43 1015.2
20260905130547 91 207 1.0 5.0 0.00 0.00 0.00 42 1015.2
20260905130021 91 215 2.0 6.0 0.00 0.00 0.00 42 1015.4
20260905125526 91 202 3.0 6.0 0.00 0.00 0.00 42 1015.5
20260905125048 91 221 2.0 7.0 0.00 0.00 0.00 41 1015.4
20260905124515 91 182 2.0 6.0 0.00 0.00 0.00 43 1015.5
20260905124017 91 183 1.0 6.0 0.00 0.00 0.00 41 1015.6
20260905123524 91 213 3.0 5.0 0.00 0.00 0.00 46 1015.7
20260905123040 91 229 1.0 6.0 0.00 0.00 0.00 41 1015.7
20260905122524 91 215 2.0 5.0 0.00 0.00 0.00 42 1015.8
20260905122027 91 207 1.0 4.0 0.00 0.00 0.00 46 1015.8
20260905121512 90 217 2.0 4.0 0.00 0.00 0.00 43 1015.8
20260905121034 90 223 2.0 6.0 0.00 0.00 0.00 45 1015.9
20260905120523 90 220 3.0 6.0 0.00 0.00 0.00 42 1015.9
20260905120018 90 207 3.0 6.0 0.00 0.00 0.00 42 1015.9
20260905115523 90 226 3.0 6.0 0.00 0.00 0.00 41 1015.8
20260905115026 90 207 3.0 6.0 0.00 0.00 0.00 44 1015.9
20260905114531 90 202 4.0 6.0 0.00 0.00 0.00 43 1015.9
20260905114016 90 43 0.0 5.0 0.00 0.00 0.00 41 1015.9
20260905113523 90 74 3.0 4.0 0.00 0.00 0.00 40 1015.9
20260905113015 90 221 2.0 4.0 0.00 0.00 0.00 40 1016.0
20260905112522 89 280 1.0 4.0 0.00 0.00 0.00 41 1016.0
20260905112025 89 240 2.0 4.0 0.00 0.00 0.00 43 1016.0
20260905111530 88 150 1.0 4.0 0.00 0.00 0.00 45 1016.0
20260905111017 88 103 1.0 4.0 0.00 0.00 0.00 46 1016.0
20260905110521 88 81 1.0 3.0 0.00 0.00 0.00 44 1015.9
20260905110015 87 70 2.0 3.0 0.00 0.00 0.00 46 1015.9
20260905105520 86 60 1.0 4.0 0.00 0.00 0.00 45 1016.0
20260905105043 85 61 2.0 4.0 0.00 0.00 0.00 51 1016.1
20260905104528 85 56 2.0 4.0 0.00 0.00 0.00 54 1016.1
20260905104030 84 56 3.0 4.0 0.00 0.00 0.00 59 1016.1
20260905103536 84 58 3.0 4.0 0.00 0.00 0.00 60 1016.2
20260905103030 84 57 2.0 4.0 0.00 0.00 0.00 62 1016.2
20260905102517 83 55 2.0 4.0 0.00 0.00 0.00 63 1016.3
20260905102041 82 50 2.0 4.0 0.00 0.00 0.00 65 1016.3
20260905101525 81 49 3.0 4.0 0.00 0.00 0.00 64 1016.3
20260905101027 81 49 3.0 5.0 0.00 0.00 0.00 68 1016.3
20260905100512 81 47 3.0 5.0 0.00 0.00 0.00 68 1016.4
20260905100025 80 46 2.0 5.0 0.00 0.00 0.00 68 1016.5
20260905095531 80 46 3.0 4.0 0.00 0.00 0.00 68 1016.5
20260905095018 80 47 3.0 4.0 0.00 0.00 0.00 68 1016.5
20260905094526 80 47 1.0 3.0 0.00 0.00 0.00 68 1016.5
20260905094030 80 47 1.0 3.0 0.00 0.00 0.00 69 1016.4
20260905093518 80 47 2.0 4.0 0.00 0.00 0.00 69 1016.4
20260905093012 79 47 2.0 5.0 0.00 0.00 0.00 69 1016.4
20260905092517 79 47 3.0 5.0 0.00 0.00 0.00 68 1016.4
20260905092020 79 48 3.0 5.0 0.00 0.00 0.00 69 1016.4
20260905091525 79 48 2.0 4.0 0.00 0.00 0.00 69 1016.4
20260905091030 79 49 2.0 4.0 0.00 0.00 0.00 70 1016.4
20260905090517 78 49 3.0 5.0 0.00 0.00 0.00 70 1016.4
20260905090034 78 48 3.0 4.0 0.00 0.00 0.00 70 1016.4
20260905085539 78 47 2.0 5.0 0.00 0.00 0.00 70 1016.4
20260905085020 78 48 3.0 5.0 0.00 0.00 0.00 69 1016.4
20260905084524 78 46 3.0 5.0 0.00 0.00 0.00 68 1016.4
20260905084046 78 46 3.0 5.0 0.00 0.00 0.00 69 1016.3
20260905083516 78 46 3.0 5.0 0.00 0.00 0.00 70 1016.4
20260905083030 78 45 3.0 5.0 0.00 0.00 0.00 69 1016.4
20260905082515 78 47 3.0 5.0 0.00 0.00 0.00 71 1016.4